Flight Track Log - Related Links

Times and Time Zones

All times are in EDT time to prevent confusion due to time zone crossing. See the EJA941 flight status page for this flight to view local times or setup timezone preferences in your user account.

Time Position Orientation Groundspeed Altitude Reporting Facility
EDT Latitude Longitude Course Direction KTS MPH feet Rate Location/Type
Wed 03:22:19 PM 29.6353 -95.2892 167° South 183 211 600  Level Houston Center
Wed 03:22:50 PM 29.6097 -95.2825 167° South 216 249 2,200 3,652 Climbing Houston Center
Wed 03:23:51 PM 29.5647 -95.2281 134° Southeast 267 307 6,200 3,450 Climbing Houston Center
Wed 03:24:10 PM 29.5661 -95.2117 84° East 253 291 6,800 3,934 Climbing Houston Center
Wed 03:24:52 PM 29.5814 -95.1369 77° East 303 349 10,200 4,355 Climbing Houston Center
Wed 03:25:12 PM 29.5883 -95.1050 76° East 302 348 11,300 2,488 Climbing Houston Center
Wed 03:26:14 PM 29.6089 -94.9928 78° East 356 410 13,600 2,112 Climbing Houston Center
Wed 03:27:17 PM 29.6294 -94.8719 79° East 385 443 15,700 1,680 Climbing Houston Center
Wed 03:28:19 PM 29.6392 -94.7433 85° East 398 458 17,100 1,161 Climbing Houston Center
Wed 03:29:21 PM 29.6475 -94.6139 86° East 405 466 18,100 1,065 Climbing Houston Center
Wed 03:30:23 PM 29.6575 -94.4806 85° East 414 476 19,300 1,258 Climbing Houston Center
Wed 03:31:25 PM 29.6686 -94.3175 85° East 425 489 20,700 1,210 Climbing Houston Center
Wed 03:32:27 PM 29.6778 -94.1781 86° East 434 499 21,800 1,065 Climbing Houston Center
Wed 03:33:29 PM 29.7003 -94.0417 79° East 440 506 22,900 1,113 Climbing Houston Center
Wed 03:34:31 PM 29.7600 -93.9153 61° Northeast 446 513 24,100 1,113 Climbing Houston Center
Wed 03:35:33 PM 29.8208 -93.7886 61° Northeast 452 520 25,200 1,210 Climbing Houston Center
Wed 03:36:35 PM 29.8944 -93.6319 62° Northeast 464 534 26,600 1,248 Climbing Houston Center
Wed 03:37:38 PM 29.9561 -93.4992 62° Northeast 472 543 27,800 1,056 Climbing Houston Center
Wed 03:38:40 PM 30.0186 -93.3631 62° Northeast 482 555 28,800 532 Climbing Houston Center
Wed 03:39:42 PM 30.0847 -93.2250 61° Northeast 495 570 28,900 97 Climbing Houston Center
Wed 03:40:44 PM 30.1642 -93.0500 62° Northeast 517 595 29,000 48 Climbing Houston Center
Wed 03:41:46 PM 30.2275 -92.8994 64° Northeast 523 602 29,000  Level Houston Center
Wed 03:42:48 PM 30.2908 -92.7469 64° Northeast 528 608 29,000  Level Houston Center
Wed 03:43:50 PM 30.3544 -92.5942 64° Northeast 529 609 29,000  Level Houston Center
Wed 03:44:52 PM 30.4197 -92.4417 64° Northeast 530 610 29,000  Level Houston Center
Wed 03:45:55 PM 30.4933 -92.2653 64° Northeast 531 611 29,000  Level Houston Center
Wed 03:46:57 PM 30.5567 -92.1117 64° Northeast 532 612 29,000  Level Houston Center
Wed 03:47:59 PM 30.6206 -91.9569 64° Northeast 534 615 29,000  Level Houston Center
Wed 03:49:01 PM 30.6972 -91.7706 64° Northeast 537 618 29,000 -484 Level Houston Center
Wed 03:50:03 PM 30.7622 -91.6142 64° Northeast 539 620 28,000 -1,548 Descending Houston Center
Wed 03:51:05 PM 30.8261 -91.4592 64° Northeast 536 617 25,800 -1,935 Descending Houston Center
Wed 03:52:07 PM 30.9119 -91.3408 50° Northeast 488 562 24,000 -871 Descending Houston Center
Wed 03:53:09 PM 30.9664 -91.2003 66° East 491 565 24,000  Level Houston Center
Wed 03:54:12 PM 30.9931 -91.0219 80° East 486 559 24,000  Level Houston Center
Wed 03:55:14 PM 31.0164 -90.8664 80° East 487 560 24,000 -97 Level Houston Center
Wed 03:56:16 PM 31.0428 -90.7094 79° East 493 567 23,800 -871 Descending Houston Center
Wed 03:57:18 PM 31.0669 -90.5489 80° East 501 577 22,200 -1,887 Descending Houston Center
Wed 03:58:20 PM 31.0928 -90.3947 79° East 487 560 19,900 -2,274 Descending Houston Center
Wed 03:59:22 PM 31.1139 -90.2506 80° East 459 528 17,500 -2,613 Descending Houston Center
Wed 04:00:24 PM 31.1414 -90.0775 79° East 450 518 14,500 -2,661 Descending Houston Center
Wed 04:01:26 PM 31.1619 -89.9431 80° East 430 495 12,000 -1,920 Descending Houston Center
Wed 04:02:29 PM 31.1797 -89.8269 80° East 382 440 10,500 -1,440 Descending Houston Center
Wed 04:03:31 PM 31.1939 -89.7278 80° East 325 374 9,000 -2,177 Descending Houston Center
Wed 04:04:33 PM 31.2078 -89.6356 80° East 297 342 6,000 -2,710 Descending Houston Center
Wed 04:05:35 PM 31.2203 -89.5508 80° East 275 316 3,400 -1,839 Descending Houston Center
Wed 04:06:37 PM 31.2342 -89.4639 79° East 237 273 2,200 -581 Descending Houston Center
Wed 04:07:39 PM 31.2536 -89.4089 68° East 209 241 2,200  Level Houston Center
Wed 04:08:41 PM 31.3075 -89.4214 349° North 189 217 2,200  Level Houston Center
Wed 04:09:44 PM 31.3586 -89.4369 345° North 186 214 2,200  Level Houston Center
Wed 04:10:46 PM 31.4153 -89.4539 346° North 194 223 2,200  Level Houston Center
Wed 04:11:48 PM 31.4692 -89.4733 343° North 196 226 2,200 25 Level Houston Center
Wed 04:13:00 PM 31.3584 -89.4025 151° Southeast  Level FlightAware
Wed 04:14:42 PM 31.4072 -89.4494 151° Southeast 196 226 2,300  Level Houston Center
Wed 04:15:44 PM 31.3711 -89.4017 132° Southeast 198 228 1,900 -194 Descending Houston Center
Wed 04:16:46 PM 31.3411 -89.3614 131° Southeast 183 211 1,900 -194 Level Houston Center
Wed 04:17:48 PM 31.3139 -89.3247 131° Southeast 165 190 1,500 -387 Descending Houston Center

Login

Don't have an account? Register now (free) for customized features, flight alerts, and more!